Dewpoint
50 51 50 50 51 51 51 50 49 49 49 49 50 51 51 52 51 45 44 49 53 57 53 49 49 51 53 53 48 50 46 42 40 40 38 37 32 33 31 28 28 41 52 62 64
51 52 52 52 51 51 51 50 50 48 48 49 49 49 50 50 48 45 46 50 55 58 52 46 46 49 52 51 47 41 41 43 42 41 37 34 33 33 29 29 29 49 61 63 63
51 52 52 52 52 51 50 49 49 48 48 48 48 49 49 49 43 40 51 52 52 57 53 49 44 49 49 47 46 41 38 40 40 42 35 35 33 32 29 31 30 39 55 61 62
52 52 52 51 51 51 51 50 49 49 48 47 48 49 49 46 30 39 48 52 52 51 53 49 44 48 47 43 44 36 39 38 40 41 39 34 32 30 31 32 38 36 52 56 58
51 52 51 51 50 50 50 50 48 48 48 47 48 48 45 40 37 41 48 48 44 52 51 48 44 47 44 44 41 40 36 36 37 39 36 35 31 30 30 35 38 38 38 46 55
51 51 50 50 50 50 50 50 47 47 47 47 46 46 43 36 38 39 43 40 45 51 50 49 42 44 44 43 40 39 38 37 37 38 38 34 34 33 31 34 35 35 36 36 36
51 50 50 50 51 50 49 47 46 46 47 46 46 43 40 36 38 45 45 46 50 50 48 49 46 42 41 41 41 39 37 36 37 38 37 36 33 32 33 34 33 37 38 34 33
50 50 50 50 50 49 47 45 44 45 45 46 46 45 36 39 39 38 41 42 49 51 52 50 47 40 42 43 41 37 35 34 35 37 37 33 31 34 34 37 34 33 32 31 32
50 50 50 50 48 47 46 44 44 46 46 47 45 43 34 41 38 36 35 36 45 49 51 50 47 42 41 39 39 40 32 33 32 35 36 33 31 32 34 33 33 33 32 30 29
50 50 49 49 48 47 47 47 47 46 46 44 44 39 37 33 39 40 40 45 45 48 48 48 45 39 39 38 31 34 31 32 31 32 34 33 31 32 30 32 32 31 30 29 29
49 49 50 48 49 49 47 44 38 38 40 36 35 33 33 38 42 42 44 41 42 45 43 43 39 35 35 37 33 35 33 29 31 31 32 31 32 32 32 30 30 30 30 30 29
47 49 49 49 49 49 45 38 39 39 34 35 35 32 40 41 36 41 43 36 38 35 42 41 36 37 37 37 36 31 31 30 29 31 31 31 32 33 32 29 29 30 31 30 29
46 48 49 50 49 45 41 41 43 42 34 32 36 38 40 40 35 40 40 40 37 36 39 36 36 38 37 35 34 32 26 27 27 30 30 28 26 28 29 30 30 29 29 28 27
47 47 48 50 44 41 40 43 43 42 31 35 37 39 41 39 36 43 41 41 37 37 37 37 39 37 36 34 33 30 28 28 30 28 25 27 20 23 27 27 27 27 26 26 35
47 47 48 49 44 40 42 43 42 41 19 35 36 43 41 37 39 39 47 44 35 39 37 37 37 39 37 36 37 30 30 32 31 28 27 27 23 22 27 25 25 26 25 29 35
46 47 47 46 47 43 44 44 43 27 21 33 36 37 36 38 40 42 44 47 42 39 38 39 41 41 38 40 41 40 32 31 31 30 25 28 24 20 23 25 26 29 34 36 39
48 48 47 47 41 44 45 41 24 21 33 34 35 38 37 36 36 38 39 38 36 30 32 37 36 39 42 37 39 39 30 24 23 21 22 23 26 23 23 25 28 31 33 37 40
49 50 48 44 44 44 42 32 19 28 31 36 37 36 35 37 37 38 38 36 36 34 32 28 31 37 39 37 37 37 29 24 17 20 22 22 24 22 23 28 30 32 35 37 40
48 45 43 45 45 44 38 24 27 28 35 35 34 33 32 36 37 37 35 36 37 37 30 29 29 37 38 41 39 37 30 30 23 21 18 21 20 24 29 31 33 34 35 36 40
42 42 41 46 45 42 32 29 33 35 36 36 33 32 28 32 34 35 31 34 37 39 38 34 29 36 38 41 39 37 35 27 24 14 16 18 18 19 26 27 29 32 33 36 40
41 38 43 46 45 40 29 28 36 37 37 34 32 27 28 29 30 29 30 31 31 31 34 36 31 34 38 36 36 34 33 31 28 23 16 13 15 18 26 27 28 32 34 36 39
38 34 44 46 35 37 31 34 37 36 38 37 34 32 28 28 28 30 30 31 32 31 31 33 33 30 34 37 38 37 34 30 25 22 20 18 18 20 24 25 28 33 35 37 41
37 36 43 45 35 33 35 36 37 35 33 33 31 32 31 28 27 30 32 34 34 33 30 31 30 25 27 29 32 34 34 34 29 29 21 17 17 22 27 29 30 32 34 40 39
37 31 35 40 38 37 34 34 36 37 35 32 30 31 29 27 29 29 31 35 35 32 39 35 30 27 21 25 30 28 31 28 29 25 24 22 20 24 25 26 27 31 35 40 36
34 32 36 32 34 33 35 34 32 33 35 32 30 29 28 26 27 30 32 33 34 35 32 32 25 26 29 32 30 30 29 29 25 26 21 22 21 22 24 26 28 32 39 38 35
31 31 33 31 32 33 35 34 32 34 33 32 31 30 30 31 29 28 30 30 30 30 30 32 26 27 25 29 28 26 28 30 28 27 27 27 25 24 24 31 33 35 39 39 36
33 34 35 30 32 33 34 32 34 36 36 35 35 32 32 33 32 30 30 30 31 30 29 31 28 25 21 26 26 22 26 28 29 29 28 25 26 28 28 32 34 38 40 39 35
Lifted_Index
7 7 7 6 6 6 6 6 6 6 7 7 6 6 5 5 6 7 6 5 2 1 1 1 1 -1 -1 -0 1 1 1 1 1 1 0 0 1 2 4 4 3 1 -2 -3 -3
7 7 6 6 6 6 5 5 5 5 6 6 6 6 5 5 6 7 6 5 3 1 0 1 1 -1 -1 -0 1 1 2 2 1 0 0 0 1 2 3 4 3 1 -2 -3 -3
6 6 6 6 6 5 4 3 2 3 3 4 4 5 5 5 6 6 6 5 3 1 0 1 1 -1 -1 -1 1 2 2 2 1 1 1 1 1 2 3 4 4 2 -1 -2 -3
7 7 7 6 6 4 2 1 0 1 1 1 2 3 4 5 6 6 5 4 3 1 0 1 1 -0 -1 -1 0 2 2 2 1 1 1 1 1 1 2 3 4 3 0 -1 -1
7 7 7 6 5 2 0 -0 -1 -0 -0 -0 0 1 2 4 5 5 4 4 2 1 0 1 1 0 -1 -1 -0 1 2 1 1 1 1 1 1 1 2 3 4 3 2 1 0
6 6 6 5 3 1 -0 -1 -1 -1 -1 -1 -1 -0 1 2 3 4 4 3 2 0 -0 0 1 0 -0 -1 -0 0 1 1 1 1 1 1 1 1 2 3 3 3 3 3 3
6 6 5 4 2 0 -1 -1 -1 -1 -1 -1 -1 -1 -0 0 1 2 3 3 2 0 0 0 0 1 0 -0 -1 -0 0 1 1 2 2 2 2 2 2 3 3 3 4 4 4
5 5 4 3 2 1 -0 -1 -1 -1 -1 -2 -1 -1 -0 0 0 1 2 3 2 1 0 0 0 0 0 -0 -1 -1 -0 0 1 2 2 2 2 2 2 3 3 3 3 4 5
5 4 4 3 3 2 1 0 -1 -1 -2 -2 -1 -1 -0 0 0 1 1 2 2 1 0 -0 0 1 0 0 0 0 0 1 1 2 2 2 2 2 2 3 3 3 3 4 5
6 5 4 4 4 4 3 1 0 -1 -1 -1 -1 -0 0 0 0 0 1 1 2 1 -0 -0 0 1 1 1 1 1 1 1 1 2 2 2 2 2 2 3 3 3 3 4 5
7 6 5 4 4 4 4 3 2 1 0 -0 -0 0 0 1 0 -0 0 2 2 1 0 0 1 2 2 1 1 1 1 1 1 1 1 2 2 2 3 3 3 3 4 4 4
8 7 5 5 4 4 5 5 4 3 2 1 1 0 1 1 0 -0 1 2 2 1 1 1 1 2 2 1 1 1 1 1 1 1 1 2 2 2 3 3 3 3 4 4 4
8 7 6 5 5 5 5 5 5 4 2 1 1 0 1 1 1 1 1 2 2 2 1 1 2 2 1 1 1 1 1 1 1 1 1 2 2 3 3 4 4 4 4 4 5
8 8 7 6 5 6 6 6 5 4 2 1 1 1 1 1 2 2 2 2 2 1 1 1 1 1 1 1 1 2 2 1 1 1 2 2 3 3 4 4 4 4 4 5 5
9 8 7 6 6 6 6 6 5 4 2 1 2 2 2 2 3 2 2 2 2 1 1 1 1 1 1 1 1 1 1 1 1 1 2 2 3 3 4 4 4 4 5 5 5
9 8 7 7 6 6 6 6 4 2 1 1 2 2 2 2 2 2 2 1 1 1 1 1 1 1 1 1 1 1 1 1 1 1 1 2 3 3 4 4 4 4 5 5 5
9 8 7 7 6 6 6 4 3 2 1 1 1 1 2 1 1 1 1 1 1 1 1 1 1 1 2 1 1 1 1 1 1 1 1 2 2 3 4 4 4 4 5 5 5
9 8 7 6 6 6 5 3 2 2 2 1 1 1 1 1 1 1 1 1 1 1 1 1 1 1 2 1 1 1 1 1 1 1 1 2 2 3 4 4 4 5 5 5 5
9 7 6 6 6 5 4 3 2 2 2 1 1 1 1 1 1 1 1 1 1 2 2 2 2 2 2 1 1 1 1 1 1 1 1 2 2 3 4 4 4 4 5 5 5
8 7 6 6 6 5 4 3 3 3 2 2 2 2 1 1 1 1 1 2 2 2 2 2 2 2 2 1 1 1 1 1 1 1 1 1 2 3 3 4 4 4 4 5 5
7 6 6 5 5 4 4 4 3 3 3 2 2 2 2 2 1 2 2 2 2 2 2 2 2 2 2 2 1 1 1 1 1 1 1 1 2 2 3 3 3 4 4 4 5
8 6 5 4 4 4 4 4 4 3 3 3 2 2 2 2 2 2 2 3 3 2 2 2 2 2 2 2 2 1 1 1 1 1 1 1 2 3 4 3 4 4 4 4 5
8 7 5 4 3 3 3 3 3 3 3 3 3 2 2 2 2 2 2 3 3 2 2 2 2 2 2 2 2 2 2 2 1 1 1 1 2 3 4 4 4 4 4 4 4
8 7 5 5 4 4 3 3 3 3 3 3 3 3 2 2 2 2 2 3 3 3 3 3 3 2 2 2 2 2 2 2 1 1 1 2 3 3 4 4 4 4 4 4 4
9 8 7 6 5 4 4 3 3 3 3 3 3 3 3 3 2 2 3 3 3 3 3 3 3 3 3 3 3 3 3 3 2 2 2 3 3 4 4 4 4 4 4 4 4
10 10 9 7 5 5 4 4 3 3 3 3 3 3 3 3 3 3 3 3 3 3 3 3 3 3 4 4 4 4 4 3 3 3 3 3 3 4 4 4 3 3 3 3 3
13 12 10 8 6 5 4 4 4 3 3 3 3 3 3 3 3 3 3 3 3 3 3 3 3 3 3 4 4 3 4 4 4 4 4 4 3 4 4 4 3 3 3 3 3